Tracking 19832 objects as of 25-Aug-2019
HD Live streaming from Space Station
objects crossing your sky now

SAKURA 2B (CS-2B)

Track SAKURA 2B (CS-2B) now!
SAKURA 2B (CS-2B) is classified as:


NORAD ID: 14248
Int'l Code: 1983-081A
Perigee: 36,186.5 km
Apogee: 36,229.0 km
Inclination: 14.6 °
Period: 1,457.3 minutes
Semi major axis: 42578 km
RCS: 8.9693 m2 (large)
Launch date: August 5, 1983
Source: Japan (JPN)
Launch site: TANEGASHIMA SPACE CENTER (TNSTA)
aabbcc
Your satellite tracking list
Your tracking list is empty




NASA's NSSDC Master Catalog

Two Line Element Set (TLE):
1 14248U 83081A   19237.49496736 -.00000066  00000-0  00000+0 0  9991
2 14248  14.5628 344.3474 0004997   1.9025   9.1790  0.98812823 99175
Source of the keplerian elements: AFSPC